PEGASUS R/B

基本信息
目录编号:
31305
目录名称:
PEGASUS R/B
国际标识:
2007-015B
轨道中心:
EARTH
物体状态:
在轨
发射日期:
2007-04-25 UTC
国别:
美国 (US)
轨道信息
数据来源: 国际轨道数据
星历时间: 2026-07-13T19:07:44+0800
半长轴: 6857.349km
偏心率: 0.001008
轨道倾角: 97.928°
近地点辐角: 221.522°
升交点赤经: 165.304°
平近点角: 138.525°
近地点: 472.299km
远地点: 486.125km
周期: 94.188分钟
每日圈数: 15.288626
详细信息
发射场:
WRAS
轨道高度:
LEO
数据来源:
AOE Integration Group
参考系:
TEME
时间系统:
UTC
历元类型:
SGP4
2D轨道图
3D轨道图
轨道高度分析图
轨道倾角分析图
轨道综合分析图
查看轨道综合分析图